NOZ173 ENZV-ENBR

Flight info

Callsign NOZ173
Flight time 0h 23m
Altitude 16000
Route ALUVA
Aircraft B738/M-SDE2E3FGHIRWXY/LB1

Departure

Time 2026-04-17 06:59
Airport Stavanger Airport, Sola (ENZV)

Arrival

Time 2026-04-17 07:22
Airport Bergen Airport, Flesland (ENBR)
Time Latitude Longitude Altitude Speed Heading
2026-04-17 06:44 58.88127 5.63026 24 ft 0 kts 315°
2026-04-17 06:52 58.88124 5.63032 24 ft 3 kts 315°
2026-04-17 06:52 58.88110 5.63059 29 ft 3 kts 315°
2026-04-17 06:52 58.88102 5.63074 29 ft 0 kts 315°
2026-04-17 06:54 58.88099 5.63026 26 ft 5 kts 227°
2026-04-17 06:55 58.88063 5.63012 25 ft 5 kts 188°
2026-04-17 06:55 58.88022 5.62967 27 ft 8 kts 230°
2026-04-17 06:55 58.88007 5.62856 25 ft 9 kts 269°
2026-04-17 06:55 58.88015 5.62702 24 ft 13 kts 279°
2026-04-17 06:56 58.87987 5.62544 25 ft 13 kts 218°
2026-04-17 06:56 58.87908 5.62462 29 ft 13 kts 223°
2026-04-17 06:56 58.87906 5.62271 25 ft 20 kts 285°
2026-04-17 06:56 58.87958 5.61940 24 ft 31 kts 287°
2026-04-17 06:57 58.88027 5.61489 21 ft 37 kts 286°
2026-04-17 06:57 58.88098 5.61022 18 ft 36 kts 286°
2026-04-17 06:57 58.88149 5.60778 17 ft 6 kts 298°
2026-04-17 06:57 58.88142 5.60768 17 ft 2 kts 153°
2026-04-17 06:58 58.88131 5.60817 20 ft 8 kts 111°
2026-04-17 06:58 58.88046 5.61349 22 ft 76 kts 106°
2026-04-17 06:58 58.87837 5.62742 28 ft 137 kts 107°
2026-04-17 06:58 58.87518 5.64711 376 ft 159 kts 109°
2026-04-17 06:59 58.87219 5.66811 1064 ft 172 kts 100°
2026-04-17 06:59 58.87260 5.69132 2109 ft 162 kts 86°
2026-04-17 06:59 58.87738 5.71093 2993 ft 177 kts 58°
2026-04-17 06:59 58.88781 5.72766 3372 ft 214 kts 32°
2026-04-17 07:00 58.90255 5.73585 3934 ft 227 kts
2026-04-17 07:00 58.91861 5.73180 4417 ft 241 kts 344°
2026-04-17 07:00 58.93522 5.72198 4817 ft 259 kts 342°
2026-04-17 07:00 58.95315 5.71155 5229 ft 278 kts 342°
2026-04-17 07:01 58.97204 5.70099 5980 ft 285 kts 343°
2026-04-17 07:01 58.99130 5.69086 6878 ft 288 kts 344°
2026-04-17 07:01 59.01080 5.68114 7704 ft 291 kts 345°
2026-04-17 07:01 59.03063 5.67167 8513 ft 296 kts 345°
2026-04-17 07:02 59.05079 5.66234 9329 ft 300 kts 346°
2026-04-17 07:02 59.07124 5.65309 10146 ft 304 kts 346°
2026-04-17 07:02 59.09217 5.64377 10696 ft 317 kts 346°
2026-04-17 07:02 59.11457 5.63388 10879 ft 342 kts 346°
2026-04-17 07:03 59.13856 5.62337 11066 ft 365 kts 346°
2026-04-17 07:03 59.16408 5.61225 11240 ft 387 kts 346°
2026-04-17 07:03 59.19096 5.60058 11517 ft 402 kts 347°
2026-04-17 07:03 59.21853 5.58864 12096 ft 409 kts 347°
2026-04-17 07:04 59.24637 5.57659 12804 ft 411 kts 347°
2026-04-17 07:04 59.27441 5.56444 13486 ft 415 kts 347°
2026-04-17 07:04 59.30273 5.55214 14124 ft 419 kts 347°
2026-04-17 07:04 59.33135 5.53970 14705 ft 423 kts 347°
2026-04-17 07:05 59.36016 5.52713 15288 ft 426 kts 347°
2026-04-17 07:05 59.38924 5.51443 15867 ft 430 kts 346°
2026-04-17 07:05 59.41858 5.50158 16207 ft 435 kts 346°
2026-04-17 07:05 59.44835 5.48852 16199 ft 441 kts 346°
2026-04-17 07:06 59.47824 5.47539 16219 ft 439 kts 346°
2026-04-17 07:06 59.50802 5.46230 16205 ft 439 kts 346°
2026-04-17 07:06 59.53780 5.44917 16203 ft 438 kts 346°
2026-04-17 07:06 59.56752 5.43605 16200 ft 438 kts 346°
2026-04-17 07:07 59.59710 5.42296 16193 ft 433 kts 346°
2026-04-17 07:07 59.62609 5.41013 16177 ft 419 kts 346°
2026-04-17 07:07 59.65389 5.39781 16173 ft 401 kts 346°
2026-04-17 07:07 59.68060 5.38595 16174 ft 386 kts 346°
2026-04-17 07:08 59.70625 5.37454 16167 ft 370 kts 346°
2026-04-17 07:08 59.73084 5.36358 16167 ft 355 kts 346°
2026-04-17 07:08 59.75445 5.35303 16169 ft 341 kts 346°
2026-04-17 07:08 59.77682 5.34302 16194 ft 328 kts 346°
2026-04-17 07:09 59.79889 5.33313 16193 ft 315 kts 346°
2026-04-17 07:09 59.81983 5.32374 16191 ft 302 kts 346°
2026-04-17 07:09 59.84001 5.31467 16195 ft 293 kts 346°
2026-04-17 07:09 59.86015 5.30558 16228 ft 305 kts 346°
2026-04-17 07:10 59.88152 5.29589 16002 ft 337 kts 346°
2026-04-17 07:10 59.90576 5.28488 15509 ft 376 kts 346°
2026-04-17 07:10 59.93242 5.27279 15055 ft 409 kts 346°
2026-04-17 07:10 59.96088 5.25991 14570 ft 423 kts 346°
2026-04-17 07:11 59.98961 5.24692 14051 ft 423 kts 347°
2026-04-17 07:11 60.01817 5.23399 13453 ft 418 kts 346°
2026-04-17 07:11 60.04644 5.22117 12853 ft 415 kts 346°
2026-04-17 07:11 60.07446 5.20843 12275 ft 411 kts 346°
2026-04-17 07:12 60.10227 5.19575 11709 ft 408 kts 346°
2026-04-17 07:12 60.12980 5.18317 11164 ft 404 kts 346°
2026-04-17 07:12 60.15709 5.17067 10613 ft 401 kts 346°
2026-04-17 07:12 60.18422 5.15822 10083 ft 398 kts 346°
2026-04-17 07:13 60.21111 5.14586 9496 ft 395 kts 346°
2026-04-17 07:13 60.23786 5.13353 8914 ft 393 kts 346°
2026-04-17 07:13 60.26433 5.12131 8335 ft 385 kts 346°
2026-04-17 07:13 60.28997 5.10947 7753 ft 371 kts 346°
2026-04-17 07:14 60.31471 5.09802 7208 ft 359 kts 346°
2026-04-17 07:14 60.33875 5.08683 6660 ft 349 kts 346°
2026-04-17 07:14 60.36213 5.07585 6087 ft 341 kts 346°
2026-04-17 07:14 60.38502 5.06500 5500 ft 334 kts 346°
2026-04-17 07:15 60.40744 5.05433 4940 ft 328 kts 346°
2026-04-17 07:15 60.42952 5.04378 4359 ft 323 kts 346°
2026-04-17 07:15 60.45128 5.03334 3789 ft 319 kts 346°
2026-04-17 07:15 60.47302 5.02737 3231 ft 313 kts
2026-04-17 07:16 60.49292 5.03952 3043 ft 289 kts 37°
2026-04-17 07:16 60.50540 5.06789 2995 ft 256 kts 72°
2026-04-17 07:16 60.50726 5.10082 2986 ft 223 kts 110°
2026-04-17 07:16 60.49967 5.12538 2997 ft 196 kts 140°
2026-04-17 07:17 60.48951 5.14234 3009 ft 188 kts 144°
2026-04-17 07:17 60.47848 5.15477 2985 ft 179 kts 167°
2026-04-17 07:17 60.45440 5.16367 3000 ft 175 kts 169°
2026-04-17 07:18 60.44248 5.16795 2955 ft 173 kts 169°
2026-04-17 07:18 60.43054 5.17202 2758 ft 175 kts 169°
2026-04-17 07:18 60.41845 5.17608 2521 ft 177 kts 169°
2026-04-17 07:18 60.40652 5.18009 2291 ft 170 kts 169°
2026-04-17 07:19 60.39505 5.18397 2058 ft 164 kts 169°
2026-04-17 07:19 60.38407 5.18764 1832 ft 154 kts 169°
2026-04-17 07:19 60.37391 5.19105 1605 ft 141 kts 169°
2026-04-17 07:19 60.36451 5.19424 1449 ft 138 kts 169°
2026-04-17 07:20 60.35512 5.19737 1250 ft 136 kts 169°
2026-04-17 07:20 60.34590 5.20052 1034 ft 133 kts 168°
2026-04-17 07:20 60.33666 5.20391 883 ft 137 kts 169°
2026-04-17 07:20 60.32715 5.20669 675 ft 139 kts 168°
2026-04-17 07:21 60.31765 5.21015 494 ft 138 kts 169°
2026-04-17 07:21 60.30818 5.21335 305 ft 139 kts 169°
2026-04-17 07:21 60.29873 5.21635 179 ft 131 kts 166°
2026-04-17 07:21 60.29138 5.21886 177 ft 77 kts 171°
2026-04-17 07:22 60.28798 5.21999 173 ft 29 kts 172°
2026-04-17 07:22 60.28687 5.22048 174 ft 8 kts 142°
2026-04-17 07:22 60.28666 5.22146 174 ft 8 kts 94°
2026-04-17 07:22 60.28676 5.22310 173 ft 16 kts 78°
2026-04-17 07:23 60.28707 5.22534 173 ft 16 kts 74°
2026-04-17 07:23 60.28728 5.22755 173 ft 16 kts 84°
2026-04-17 07:23 60.28734 5.22865 173 ft 0 kts 83°